Weather History for KDLS - July, 2012

Change the Weather History Date:

Saturday, July 14, 2012

  Actual Average Record
Temperature  
Mean Temperature 76 °F -  
Max Temperature 84 °F 86 °F - (-1)
Min Temperature 68 °F 59 °F - (-1)
Cooling Degree Days 11    
Growing Degree Days 26 (Base 50)    
Moisture  
Dew Point 58 °F    
Average Humidity 54    
Maximum Humidity 68    
Minimum Humidity 40    
Precipitation  
Precipitation 0.00 in - - ()
Sea Level Pressure  
Sea Level Pressure 29.86 in    
Wind  
Wind Speed 14 mph (NW)    
Max Wind Speed 23 mph    
Max Gust Speed 31 mph    
Visibility 10 miles    
Events Thunderstorm    
Averages and records for this station are not official NWS values.
T = Trace of Precipitation, MM = Missing Value Source: NWS Daily Summary

Daily Weather History Graph

Daily Weather History Graph

Search for Another Location

Airport or City:

Trip Planner

Search our weather history database for the weather conditions in past years. The results will help you decide how hot, cold, wet, or windy it might be!

Date:

Astronomy

Jul. 14, 2012 Rise Set
Actual Time 5:29 AM PDT 8:51 PM PDT
Civil Twilight 4:53 AM PDT 9:27 PM PDT
Nautical Twilight 4:05 AM PDT 10:15 PM PDT
Astronomical Twilight 3:04 AM PDT 11:15 PM PDT
Moon 1:49 AM PDT (7/14) 5:19 PM PDT (7/14)
Length of Visible Light 16h 34m
Length of Day
15h 21m
Waning Crescent, 18% of the Moon is Illuminated
Jul 14
Waning Crescent
Jul 18
New
Jul 26
First Quarter
Aug 1
Full
Aug 9
Last Quarter

Hourly Weather History & Observations

Time (PDT) Temp. Heat Index Dew Point Humidity Pressure Visibility Wind Dir Wind Speed Gust Speed Precip Events Conditions
12:53 AM 73.0 °F - 55.0 °F 53% 29.85 in 10.0 mi NW 16.1 mph - N/A   Clear
1:53 AM 71.1 °F - 55.9 °F 59% 29.85 in 10.0 mi NW 11.5 mph - N/A   Clear
2:53 AM 69.1 °F - 57.0 °F 65% 29.84 in 10.0 mi NNW 15.0 mph 25.3 mph N/A   Clear
3:53 AM 69.1 °F - 57.0 °F 65% 29.85 in 10.0 mi NW 12.7 mph - N/A   Clear
4:53 AM 69.1 °F - 57.0 °F 65% 29.85 in 10.0 mi NW 13.8 mph - N/A   Clear
5:53 AM 68.0 °F - 57.0 °F 68% 29.85 in 10.0 mi NW 16.1 mph - N/A   Clear
6:53 AM 69.1 °F - 55.9 °F 63% 29.88 in 10.0 mi Calm Calm - N/A   Clear
7:53 AM 70.0 °F - 57.0 °F 63% 29.90 in 10.0 mi NNW 8.1 mph - N/A   Overcast
8:53 AM 71.1 °F - 57.0 °F 61% 29.90 in 10.0 mi NW 13.8 mph - N/A   Mostly Cloudy
9:04 AM 73.4 °F - 57.2 °F 57% 29.91 in 10.0 mi NNW 15.0 mph - N/A Thunderstorm Mostly Cloudy
9:19 AM 73.4 °F - 57.2 °F 57% 29.91 in 10.0 mi NNW 12.7 mph - N/A   Mostly Cloudy
9:53 AM 72.0 °F - 57.0 °F 59% 29.91 in 10.0 mi NNW 12.7 mph - N/A   Overcast
10:00 AM 73.4 °F - 57.2 °F 57% 29.91 in 10.0 mi NNW 15.0 mph - N/A Thunderstorm Thunderstorm
10:31 AM 73.4 °F - 57.2 °F 57% 29.91 in 10.0 mi NNW 15.0 mph - N/A   Overcast
10:53 AM 73.9 °F - 57.9 °F 57% 29.91 in 10.0 mi NW 17.3 mph 25.3 mph N/A   Overcast
11:53 AM 75.9 °F - 57.9 °F 54% 29.89 in 10.0 mi NW 23.0 mph 31.1 mph N/A   Clear
12:53 PM 77.0 °F - 59.0 °F 54% 29.87 in 10.0 mi NW 18.4 mph 28.8 mph N/A   Clear
1:53 PM 78.1 °F - 57.9 °F 50% 29.86 in 10.0 mi NW 20.7 mph 29.9 mph N/A   Clear
2:35 PM 82.4 °F 82.5 °F 59.0 °F 45% 29.85 in 10.0 mi NNW 19.6 mph 25.3 mph N/A   Partly Cloudy
2:53 PM 84.0 °F 84.0 °F 60.1 °F 44% 29.85 in 10.0 mi NW 15.0 mph 24.2 mph N/A   Clear
3:53 PM 84.0 °F 83.5 °F 57.9 °F 41% 29.82 in 10.0 mi NW 19.6 mph - N/A   Scattered Clouds
4:53 PM 84.9 °F 84.2 °F 57.9 °F 40% 29.81 in 10.0 mi NNW 18.4 mph 27.6 mph N/A   Clear
5:53 PM 82.0 °F 82.0 °F 57.9 °F 44% 29.81 in 10.0 mi NW 11.5 mph 18.4 mph N/A   Clear
6:53 PM 80.1 °F 80.4 °F 57.0 °F 45% 29.81 in 10.0 mi NNW 17.3 mph 27.6 mph N/A   Clear
7:53 PM 79.0 °F - 57.0 °F 47% 29.83 in 10.0 mi NW 11.5 mph - N/A   Clear
8:53 PM 78.1 °F - 59.0 °F 52% 29.84 in 10.0 mi NW 12.7 mph 21.9 mph N/A   Clear
9:53 PM 78.1 °F - 59.0 °F 52% 29.84 in 10.0 mi NW 16.1 mph - N/A   Clear
10:53 PM 77.0 °F - 57.9 °F 52% 29.85 in 10.0 mi NW 9.2 mph - N/A   Partly Cloudy
11:53 PM 77.0 °F - 57.9 °F 52% 29.85 in 10.0 mi NW 6.9 mph - N/A   Clear